Weather History for CYMX - March, 2014

Change the Weather History Date:

Friday, March 28, 2014

  Actual Average Record
Temperature  
Mean Temperature 29 °F -  
Max Temperature 37 °F 36 °F 57 °F (2009)
Min Temperature 21 °F 23 °F 14 °F (2015)
Degree Days  
Heating Degree Days 36    
Moisture  
Dew Point 28 °F    
Average Humidity 94    
Maximum Humidity 100    
Minimum Humidity 86    
Precipitation  
Precipitation 0.00 in - - ()
Sea Level Pressure  
Sea Level Pressure 29.87 in    
Wind  
Wind Speed 5 mph ()    
Max Wind Speed 10 mph    
Max Gust Speed -    
Visibility 3.2 miles    
Events Fog , Rain , Snow    
Averages and records for this station are not official NWS values.
T = Trace of Precipitation, MM = Missing Value Source: Averaged Metar Reports

Daily Weather History Graph

Daily Weather History Graph

Search for Another Location

Airport or City:

Trip Planner

Search our weather history database for the weather conditions in past years. The results will help you decide how hot, cold, wet, or windy it might be!

Date:

Astronomy

Mar. 28, 2014 Rise Set
Actual Time 6:43 AM EDT 7:19 PM EDT
Civil Twilight 6:14 AM EDT 7:49 PM EDT
Nautical Twilight 5:38 AM EDT 8:24 PM EDT
Astronomical Twilight 5:02 AM EDT 9:01 PM EDT
Moon 5:20 AM EDT (3/28) 5:07 PM EDT (3/28)
Length of Visible Light 13h 35m
Length of Day
12h 35m
Waning Crescent, 6% of the Moon is Illuminated
Mar 28
Waning Crescent
Mar 30
New
Apr 7
First Quarter
Apr 15
Full
Apr 22
Last Quarter

Hourly Weather History & Observations

Time (EDT) Temp. Windchill Dew Point Humidity Pressure Visibility Wind Dir Wind Speed Gust Speed Precip Events Conditions
12:00 AM 21.2 °F 13.6 °F 17.6 °F 86% 30.11 in 15.0 mi NE 5.8 mph - N/A Snow Light Snow
1:00 AM 21.2 °F 14.9 °F 17.6 °F 86% 30.07 in 10.0 mi NE 4.6 mph - N/A Snow Light Snow
2:00 AM 21.2 °F 12.6 °F 19.4 °F 93% 30.06 in 10.0 mi North 6.9 mph - N/A Snow Light Snow
3:00 AM 23.0 °F 15.8 °F 19.4 °F 86% 30.03 in 15.0 mi NNE 5.8 mph - N/A Snow Light Snow
4:00 AM 23.0 °F 14.7 °F 19.4 °F 86% 30.00 in 10.0 mi NE 6.9 mph - N/A Snow Light Snow
5:00 AM 23.0 °F 15.8 °F 19.4 °F 86% 29.96 in 2.0 mi ENE 5.8 mph - N/A Snow Light Snow
5:35 AM 23.0 °F 17.0 °F 19.4 °F 86% 29.95 in 1.0 mi NE 4.6 mph - N/A Snow Light Snow
6:00 AM 23.0 °F 14.7 °F 19.4 °F 86% 29.94 in 1.0 mi NNE 6.9 mph - N/A Snow Light Snow
6:31 AM 23.0 °F 12.4 °F 21.2 °F 93% 29.93 in 1.0 mi ENE 10.4 mph - N/A Snow Light Snow
7:00 AM 23.0 °F 15.8 °F 21.2 °F 93% 29.92 in 1.0 mi ENE 5.8 mph - N/A Snow Light Snow
7:06 AM 23.0 °F 13.9 °F 21.2 °F 93% 29.92 in 0.8 mi ENE 8.1 mph - N/A Snow Light Snow
7:25 AM 23.0 °F 17.0 °F 21.2 °F 93% 29.91 in 0.5 mi NE 4.6 mph - N/A Snow Snow
7:41 AM 23.0 °F 17.0 °F 21.2 °F 93% 29.90 in 2.0 mi NE 4.6 mph - N/A Snow Light Snow
8:00 AM 23.0 °F 18.4 °F 21.2 °F 93% 29.89 in 1.5 mi NE 3.5 mph - N/A Snow Light Snow
9:00 AM 24.8 °F 17.9 °F 23.0 °F 93% 29.85 in 3.0 mi NE 5.8 mph - N/A Snow Light Snow
9:22 AM 24.8 °F 16.9 °F 23.0 °F 93% 29.84 in 2.5 mi NNE 6.9 mph - N/A   Overcast
9:35 AM 26.6 °F 19.1 °F 24.8 °F 93% 29.83 in 2.0 mi NE 6.9 mph - N/A   Light Freezing Drizzle
10:00 AM 26.6 °F 19.1 °F 24.8 °F 93% 29.82 in 2.0 mi NNE 6.9 mph - N/A   Light Freezing Drizzle
10:24 AM 28.4 °F 22.2 °F 26.6 °F 93% 29.81 in 2.0 mi NNE 5.8 mph - N/A   Overcast
11:00 AM 28.4 °F 21.2 °F 26.6 °F 93% 29.79 in 1.5 mi NNE 6.9 mph - N/A   Overcast
12:00 PM 32.0 °F 26.4 °F 30.2 °F 93% 29.77 in 3.0 mi NNE 5.8 mph - N/A   Overcast
1:00 PM 33.8 °F 29.6 °F 32.0 °F 93% 29.76 in 3.0 mi NNE 4.6 mph - N/A   Overcast
1:42 PM 33.8 °F 28.6 °F 32.0 °F 93% 29.76 in 2.0 mi NNE 5.8 mph - N/A Rain Light Rain
2:00 PM 33.8 °F 30.8 °F 32.0 °F 93% 29.76 in 2.0 mi North 3.5 mph - N/A Rain Light Rain
2:39 PM 33.8 °F - 32.0 °F 93% 29.74 in 1.0 mi NNE 2.3 mph - N/A Rain Light Rain
3:00 PM 33.8 °F 29.6 °F 32.0 °F 93% 29.74 in 0.5 mi NNW 4.6 mph - N/A Fog , Rain Light Rain
3:31 PM 33.8 °F 28.6 °F 33.8 °F 100% 29.74 in 0.5 mi North 5.8 mph - N/A Fog , Rain Light Rain
4:00 PM 33.8 °F 30.8 °F 33.8 °F 100% 29.73 in 0.5 mi NNE 3.5 mph - N/A Fog , Rain Light Rain
5:00 PM 33.8 °F - 33.8 °F 100% 29.74 in 0.2 mi North 2.3 mph - N/A Fog , Rain Light Rain
6:00 PM 33.8 °F - 33.8 °F 100% 29.74 in 0.2 mi NNE 2.3 mph - N/A Fog , Rain Light Rain
6:34 PM 33.8 °F 30.8 °F 33.8 °F 100% 29.76 in 0.4 mi North 3.5 mph - N/A Fog , Rain Light Rain
7:00 PM 33.8 °F 28.6 °F 33.8 °F 100% 29.78 in 0.5 mi North 5.8 mph - N/A Fog , Rain Light Rain
7:45 PM 33.8 °F - 33.8 °F 100% 29.81 in 1.0 mi Variable 2.3 mph - N/A Rain Light Rain
8:00 PM 33.8 °F - 33.8 °F 100% 29.83 in 0.8 mi Calm Calm - N/A Rain Light Rain
8:17 PM 33.8 °F 29.6 °F 33.8 °F 100% 29.84 in 2.0 mi SSW 4.6 mph - N/A Rain Light Rain
8:41 PM 37.4 °F 33.8 °F 37.4 °F 100% 29.86 in 1.0 mi WSW 4.6 mph - N/A Rain Light Rain
9:00 PM 37.4 °F 32.8 °F 37.4 °F 100% 29.88 in 1.0 mi West 5.8 mph - N/A Rain Light Rain
9:47 PM 37.4 °F 33.8 °F 37.4 °F 100% 29.93 in 6.0 mi WSW 4.6 mph - N/A Rain Light Rain
10:00 PM 37.4 °F 32.1 °F 37.4 °F 100% 29.94 in 7.0 mi WSW 6.9 mph - N/A   Overcast
11:00 PM 37.4 °F 30.8 °F 35.6 °F 93% 30.01 in 10.0 mi West 9.2 mph - N/A   Overcast